Wind_Speed
23 23 23 21 19 9 3 2 3 9 6 4 4 3 4 3 2 1 1 2 1 3 3 2 1 4 6 8 7 4 3 4 4 8 2 3 4 6 5 4 4 4 1 8
22 23 23 22 20 15 3 2 2 9 4 3 2 1 2 2 4 2 2 2 3 2 2 1 4 4 2 9 7 6 5 1 4 5 4 1 4 5 5 3 3 7 4 7
18 19 21 22 20 17 7 2 2 5 8 7 5 3 1 2 3 3 3 2 1 0 2 3 2 2 2 9 5 3 7 3 6 6 5 4 4 5 8 6 3 4 10 12
15 17 18 20 19 16 8 5 3 3 2 4 3 2 3 2 2 3 5 3 5 5 3 2 4 4 1 3 4 4 2 4 5 11 17 14 17 16 12 16 16 9 6 11
14 14 15 17 17 14 10 4 3 3 2 1 1 1 4 4 2 5 3 4 4 7 6 8 6 5 4 5 2 5 1 4 3 7 7 9 16 17 18 20 22 21 23 29
13 13 14 14 16 15 7 8 5 2 1 1 1 2 3 3 1 4 5 8 3 5 12 19 18 14 7 7 9 7 5 2 4 6 5 12 9 10 19 7 5 21 16 21
16 16 15 13 13 14 11 8 6 3 2 1 3 1 3 3 5 3 3 8 5 3 3 8 9 8 9 8 10 9 5 3 2 5 9 4 4 1 5 14 8 17 11 17
17 17 17 17 14 12 9 8 6 3 2 3 6 5 5 6 6 5 6 9 7 5 5 2 4 1 1 2 3 5 4 4 3 2 3 10 5 1 5 7 8 15 21 19
17 16 15 15 14 12 11 7 6 4 2 3 4 3 2 2 2 3 3 4 4 3 2 1 2 4 2 3 3 6 4 2 3 0 3 5 1 1 2 4 5 2 17 16
16 16 14 12 12 10 8 6 5 4 4 4 2 2 2 3 2 3 3 2 2 5 1 3 4 4 3 4 6 6 4 3 10 8 5 10 10 9 2 2 5 3 4 16
17 14 14 13 13 12 9 8 6 7 5 15 19 14 10 9 5 2 1 2 1 2 1 2 3 3 4 2 4 6 8 8 5 4 5 9 9 5 6 3 9 12 24 29
20 18 15 13 12 12 10 11 10 11 13 16 27 31 29 27 24 14 6 4 3 9 2 2 1 3 2 2 3 1 3 6 5 11 8 2 10 20 20 23 29 42 36 37
22 20 19 16 14 13 14 14 12 13 15 24 15 5 14 18 14 24 9 12 11 8 10 5 2 6 2 3 5 3 5 12 4 1 11 15 26 28 33 39 37 33 31 34
24 21 20 18 16 15 17 18 14 14 10 6 10 12 6 5 3 11 22 31 14 9 8 6 3 3 10 4 5 5 6 10 5 8 26 30 29 24 31 31 30 36 38 35
22 21 20 19 18 16 18 22 24 20 14 5 11 23 33 34 28 25 23 25 30 17 5 5 4 5 3 6 3 11 14 7 6 7 19 14 26 32 40 43 36 32 40 39
18 17 16 16 11 9 8 8 11 14 27 9 3 10 15 19 23 19 19 21 20 18 10 7 8 9 7 4 4 6 18 26 33 30 35 34 37 36 26 31 42 35 31 31
16 15 14 14 9 12 16 7 4 1 5 5 6 6 8 14 16 11 14 17 14 14 8 8 6 8 12 3 12 12 28 29 33 35 38 31 26 33 34 23 22 22 23 24
14 15 14 13 15 17 22 25 27 25 14 8 3 3 4 9 7 6 8 7 11 9 7 5 5 5 8 6 17 19 20 15 20 26 21 29 26 18 21 21 22 25 28 30
13 14 13 12 14 12 14 20 20 20 19 6 6 3 4 7 5 4 7 7 3 6 5 6 9 4 7 13 7 12 30 22 26 20 15 13 16 19 24 28 31 33 37 40
11 10 4 3 5 10 12 6 7 14 13 13 6 8 3 8 9 5 5 5 3 3 6 6 4 4 17 35 33 28 10 10 9 10 16 19 22 24 26 26 27 28 30 32
8 4 5 7 7 4 5 5 8 8 4 7 6 21 10 12 4 4 10 3 2 3 4 5 3 3 8 11 4 2 3 8 9 10 13 14 17 23 27 29 31 33 36 36
5 4 6 5 5 6 4 4 4 5 5 6 5 6 8 7 10 8 8 4 3 6 7 2 3 4 9 6 5 6 8 14 18 17 18 22 24 29 33 36 41 45 45 43
9 6 5 4 7 7 6 6 3 3 4 7 7 4 7 8 11 6 3 4 5 8 2 4 5 3 10 7 11 11 11 17 18 22 23 25 30 36 37 39 41 40 41 41
6 7 6 7 6 6 5 4 4 3 4 9 10 4 8 7 4 4 4 4 3 2 3 7 3 19 10 7 12 15 20 22 25 27 31 35 37 37 37 37 36 36 38 37
8 8 6 8 12 8 5 7 8 10 5 6 5 6 7 3 4 3 3 4 5 5 5 3 7 15 4 18 26 28 27 28 31 37 38 36 35 36 40 37 35 35 36 34
12 10 6 6 2 8 11 15 11 7 10 7 5 3 1 5 3 3 6 3 6 4 3 2 5 11 27 31 36 40 35 33 36 37 34 33 38 38 40 40 36 38 38 38
8 11 26 21 10 20 21 17 19 13 10 3 4 4 10 1 2 4 4 5 3 6 16 30 42 46 43 38 44 44 39 40 40 39 36 37 38 36 39 39 36 38 39 38
Wind_Direction
24 26 25 24 21 23 29 36 41 4 2 24 44 89 133 126 167 127 113 131 163 206 186 211 202 216 217 187 165 150 194 152 265 224 119 160 164 185 159 132 241 231 244 272
18 17 17 18 19 22 46 79 39 15 33 89 35 116 116 136 144 198 180 195 206 190 226 306 205 213 237 185 167 165 179 267 331 357 15 48 213 195 175 138 136 214 161 260
13 14 12 13 15 16 28 81 43 37 51 71 119 134 151 147 170 164 178 201 144 105 265 197 259 250 220 196 200 192 168 189 208 211 204 149 214 199 198 178 191 188 232 282
6 10 12 15 14 16 25 36 62 49 340 24 77 86 158 164 215 205 194 177 200 186 227 246 230 217 192 183 207 146 153 253 215 257 262 255 257 249 226 212 222 212 247 229
358 6 10 15 21 20 38 52 25 31 73 18 109 6 208 197 227 167 240 214 197 185 198 200 211 172 199 201 145 155 192 273 321 283 263 243 252 247 236 235 238 247 256 273
353 0 6 9 17 25 40 30 21 4 19 58 73 229 180 231 195 222 231 213 178 216 240 250 260 247 236 202 162 185 165 216 354 271 322 299 279 239 207 204 221 222 233 242
347 351 356 3 11 22 33 30 12 4 302 239 214 225 217 234 230 261 256 211 183 256 261 289 269 254 241 206 205 178 144 164 200 282 329 320 264 187 173 208 236 214 251 258
341 344 345 348 0 6 19 18 21 14 289 251 297 255 238 277 263 241 248 251 241 262 300 333 328 335 233 189 213 194 166 156 270 279 283 288 306 99 149 179 287 218 225 252
330 333 335 335 343 353 3 20 24 359 333 251 287 307 262 246 256 301 249 255 247 225 95 54 260 240 228 189 119 38 131 85 155 225 268 260 266 95 176 186 289 298 203 239
319 322 325 329 328 337 341 348 357 337 277 263 240 245 258 260 255 253 275 255 217 205 143 219 214 261 177 207 180 168 144 191 220 227 261 282 250 235 21 -0 251 348 228 255
310 312 314 314 318 321 315 317 313 313 261 286 275 266 250 256 235 212 217 310 202 91 198 219 255 228 229 220 163 180 179 166 193 181 230 268 197 87 177 260 305 306 310 305
306 306 301 298 296 299 296 294 297 296 269 271 289 280 276 270 258 255 221 243 178 213 193 207 294 287 265 232 267 78 242 201 188 196 223 229 207 249 275 291 294 297 298 310
299 297 295 290 284 278 273 279 281 288 286 295 274 271 289 287 253 231 230 247 235 216 216 189 195 235 150 235 236 223 238 196 229 112 262 261 283 290 292 299 296 308 311 308
291 290 288 284 278 266 259 261 266 273 269 272 294 284 267 306 272 240 241 236 235 238 219 213 210 229 194 229 257 215 214 156 188 261 274 277 280 307 313 314 312 308 314 315
282 282 281 282 282 272 251 251 256 245 237 249 278 283 286 281 277 265 253 238 231 229 217 205 225 228 202 230 279 252 214 229 218 242 262 272 294 302 306 311 315 317 316 314
281 279 278 283 283 284 266 277 273 256 240 258 279 258 269 268 264 252 241 230 228 218 209 220 229 220 200 239 253 254 257 252 249 255 278 292 299 307 314 311 312 316 318 319
281 278 273 266 248 243 225 232 219 41 214 248 274 260 247 255 256 240 223 218 216 214 223 220 226 201 202 235 254 269 289 286 281 281 291 300 305 307 316 327 327 331 341 350
284 284 283 276 243 246 249 245 247 264 271 257 245 252 262 209 202 200 189 194 205 217 230 217 208 214 218 256 258 265 280 291 287 296 298 294 303 329 344 350 353 353 357 356
285 290 286 284 249 250 247 260 261 257 233 246 216 204 234 198 203 178 174 187 206 233 228 213 189 189 219 238 215 281 296 298 302 308 324 2 4 2 3 1 0 357 353 349
283 293 280 243 226 254 270 258 216 213 220 234 218 208 244 193 184 192 175 198 228 235 219 187 228 253 249 257 264 283 305 4 29 17 12 6 1 357 353 350 349 340 333 329
276 222 226 242 276 297 243 243 206 203 232 223 233 215 216 216 169 181 213 196 214 240 228 189 235 263 246 252 194 267 13 36 25 8 352 348 342 338 335 332 331 328 324 321
227 232 262 269 241 224 234 228 214 210 228 195 205 232 210 204 193 193 193 212 180 248 150 225 256 248 231 164 78 59 5 358 347 332 330 332 329 331 329 329 330 327 322 318
237 229 219 198 215 230 214 212 238 216 218 195 189 222 194 186 203 220 177 218 226 129 201 231 229 237 130 78 22 4 333 323 314 319 324 323 321 322 324 323 321 317 314 315
220 182 218 203 218 224 205 190 204 240 235 199 194 216 202 209 194 206 204 209 128 231 242 235 230 205 155 31 356 333 319 308 307 316 321 321 321 317 315 319 317 314 312 315
202 212 225 223 222 238 253 265 259 257 278 194 200 237 206 207 246 202 235 192 222 212 232 232 198 157 214 322 328 322 314 310 313 317 317 314 316 314 315 319 317 320 318 314
199 220 249 231 221 255 254 246 252 245 224 244 262 265 244 239 218 205 221 213 217 244 228 285 205 292 303 307 317 322 318 312 311 314 317 309 315 313 315 316 322 324 323 320
203 221 228 233 240 232 238 249 251 241 198 222 200 245 228 90 249 234 192 215 235 278 299 300 304 301 300 306 312 311 311 309 309 310 310 302 311 312 315 314 320 322 325 326
Height
1565 1562 1559 1556 1553 1550 1551 1550 1550 1550 1548 1549 1555 1564 1563 1565 1566 1566 1567 1567 1568 1570 1571 1571 1581 1577 1574 1568 1570 1573 1574 1582 1584 1565 1563 1563 1567 1569 1569 1589 1591 1571 1577 1537
1567 1564 1561 1558 1554 1551 1550 1550 1551 1551 1548 1560 1564 1563 1562 1564 1565 1566 1567 1567 1567 1568 1569 1574 1572 1572 1567 1567 1568 1571 1573 1581 1591 1566 1568 1564 1562 1561 1561 1567 1574 1559 1583 1537
1569 1566 1563 1560 1556 1553 1552 1551 1554 1553 1552 1556 1558 1561 1563 1563 1563 1564 1565 1566 1566 1568 1568 1568 1568 1568 1566 1566 1567 1568 1569 1576 1571 1568 1554 1557 1558 1554 1556 1557 1570 1569 1547 1519
1570 1567 1564 1561 1558 1555 1554 1554 1557 1557 1562 1559 1560 1561 1562 1563 1563 1563 1563 1564 1565 1567 1568 1567 1568 1565 1565 1567 1567 1569 1570 1573 1571 1560 1553 1552 1549 1546 1546 1547 1539 1543 1522 1522
1570 1568 1566 1563 1560 1557 1556 1557 1559 1559 1560 1560 1561 1561 1562 1562 1561 1563 1563 1562 1559 1561 1564 1561 1562 1563 1565 1563 1567 1569 1571 1570 1567 1552 1541 1543 1541 1533 1534 1534 1528 1524 1515 1505
1570 1568 1566 1564 1562 1560 1559 1559 1559 1559 1561 1561 1562 1561 1560 1560 1559 1558 1558 1558 1560 1560 1556 1554 1554 1555 1555 1556 1561 1566 1570 1572 1568 1562 1545 1539 1530 1508 1512 1513 1509 1507 1516 1481
1568 1567 1566 1565 1563 1561 1561 1560 1560 1559 1562 1562 1560 1559 1559 1558 1558 1559 1556 1556 1557 1555 1554 1553 1551 1552 1552 1554 1555 1557 1567 1569 1567 1561 1549 1526 1492 1495 1497 1500 1493 1494 1487 1475
1567 1566 1564 1563 1563 1562 1561 1560 1560 1560 1561 1560 1558 1557 1557 1556 1555 1556 1554 1554 1554 1552 1553 1553 1550 1552 1552 1553 1555 1557 1559 1563 1564 1570 1565 1522 1485 1494 1498 1500 1481 1473 1476 1472
1567 1565 1564 1563 1562 1561 1560 1560 1560 1560 1560 1558 1557 1556 1556 1556 1555 1554 1552 1552 1552 1553 1552 1554 1548 1548 1540 1549 1556 1556 1559 1560 1566 1568 1563 1531 1488 1490 1491 1493 1489 1468 1469 1469
1566 1564 1563 1562 1560 1560 1560 1560 1560 1560 1559 1554 1554 1554 1555 1554 1553 1553 1551 1550 1551 1552 1554 1554 1554 1544 1541 1541 1547 1551 1557 1560 1555 1556 1555 1522 1491 1490 1490 1491 1480 1467 1466 1466
1563 1563 1562 1560 1559 1558 1558 1558 1558 1559 1556 1552 1549 1550 1551 1551 1551 1551 1551 1551 1549 1553 1555 1554 1546 1547 1538 1536 1536 1541 1539 1544 1546 1549 1548 1528 1487 1491 1491 1473 1467 1467 1464 1461
1560 1559 1559 1558 1557 1556 1555 1555 1555 1555 1554 1549 1547 1542 1543 1543 1545 1547 1547 1545 1544 1543 1546 1547 1545 1543 1541 1534 1526 1530 1531 1519 1523 1520 1500 1484 1483 1476 1474 1472 1467 1461 1460 1456
1555 1555 1554 1554 1554 1553 1552 1552 1551 1551 1548 1541 1536 1533 1534 1533 1532 1538 1544 1541 1540 1538 1538 1539 1539 1540 1535 1531 1527 1519 1514 1509 1513 1508 1479 1480 1476 1474 1471 1467 1462 1458 1456 1452
1549 1549 1549 1549 1548 1548 1547 1546 1547 1548 1547 1542 1529 1528 1528 1529 1528 1529 1530 1532 1534 1534 1535 1535 1535 1533 1525 1523 1512 1509 1502 1503 1498 1497 1482 1477 1471 1468 1466 1461 1459 1455 1451 1446
1542 1542 1542 1542 1543 1542 1541 1540 1539 1542 1545 1535 1527 1523 1523 1523 1521 1521 1523 1524 1527 1529 1531 1529 1527 1524 1523 1515 1509 1490 1495 1489 1490 1479 1469 1469 1466 1463 1460 1455 1450 1446 1441 1435
1537 1536 1536 1536 1537 1539 1539 1536 1532 1531 1534 1531 1525 1518 1513 1514 1514 1514 1514 1517 1519 1522 1522 1518 1514 1512 1516 1511 1498 1478 1478 1477 1475 1469 1467 1465 1460 1459 1457 1452 1446 1440 1435 1430
1533 1532 1530 1531 1533 1533 1535 1534 1530 1529 1530 1528 1520 1512 1506 1506 1508 1508 1509 1510 1511 1513 1513 1510 1507 1506 1507 1498 1479 1473 1473 1473 1471 1467 1464 1459 1455 1450 1447 1443 1439 1435 1430 1425
1527 1529 1525 1526 1527 1527 1525 1525 1527 1527 1528 1525 1516 1506 1506 1502 1502 1503 1504 1506 1508 1506 1503 1501 1500 1501 1498 1483 1463 1466 1465 1463 1462 1460 1458 1454 1450 1446 1443 1439 1435 1430 1426 1421
1522 1524 1522 1520 1523 1521 1519 1518 1519 1520 1526 1515 1505 1502 1501 1499 1500 1501 1502 1502 1503 1500 1496 1493 1494 1485 1477 1463 1460 1461 1460 1458 1453 1451 1451 1450 1447 1444 1440 1436 1432 1428 1424 1419
1518 1519 1519 1517 1518 1517 1517 1512 1512 1509 1506 1502 1494 1496 1496 1498 1498 1500 1502 1499 1496 1491 1485 1486 1482 1466 1461 1453 1453 1456 1455 1453 1450 1448 1446 1444 1442 1440 1436 1433 1431 1429 1425 1420
1516 1515 1515 1514 1515 1515 1513 1508 1504 1499 1494 1490 1488 1489 1487 1490 1495 1495 1494 1491 1490 1487 1477 1479 1472 1464 1449 1447 1449 1451 1452 1451 1450 1448 1447 1445 1442 1438 1434 1430 1426 1421 1416 1411
1514 1513 1511 1513 1513 1509 1509 1500 1494 1490 1484 1481 1481 1481 1482 1484 1485 1485 1485 1482 1482 1477 1474 1474 1463 1448 1442 1446 1448 1449 1449 1448 1447 1446 1443 1439 1436 1433 1430 1425 1418 1413 1407 1402
1509 1511 1509 1508 1505 1501 1493 1491 1483 1483 1479 1475 1476 1480 1479 1478 1481 1479 1477 1477 1474 1471 1473 1463 1453 1441 1441 1445 1445 1445 1446 1445 1443 1439 1435 1431 1428 1425 1421 1416 1414 1407 1400 1395
1504 1504 1502 1499 1491 1482 1477 1475 1476 1476 1474 1473 1473 1476 1476 1473 1474 1470 1469 1466 1470 1472 1468 1459 1438 1435 1438 1440 1440 1440 1440 1438 1436 1431 1427 1423 1420 1414 1412 1409 1405 1398 1392 1386
1498 1496 1489 1481 1470 1469 1471 1471 1472 1474 1474 1473 1473 1473 1472 1469 1467 1464 1462 1460 1458 1459 1452 1439 1430 1433 1435 1434 1435 1433 1431 1428 1425 1422 1418 1415 1412 1407 1400 1399 1394 1387 1381 1377
1484 1483 1474 1466 1469 1468 1469 1469 1469 1470 1470 1471 1470 1467 1467 1464 1461 1460 1453 1453 1456 1444 1436 1431 1432 1433 1432 1429 1425 1422 1421 1419 1415 1412 1408 1406 1403 1396 1391 1386 1381 1376 1372 1368
1467 1464 1462 1461 1462 1460 1460 1463 1464 1465 1467 1467 1466 1467 1463 1458 1461 1457 1454 1451 1438 1432 1431 1429 1427 1426 1423 1420 1416 1414 1411 1408 1404 1400 1398 1398 1392 1385 1380 1374 1371 1367 1362 1355